Back to catalog

FENGYUN 1C DEB

AlivePO
NORAD 36204·DEBRIS·🇨🇳 China

Launched May 10, 1999 from Taiyuan Satellite Launch Center

Loading…

Next Passes (next 24 hours)

TLE

FreshSource: Space-Track

Epoch: Sep 13, 2026, 04:25 UTC

1 36204U 99025DUD 26256.18409912  .00001840  00000-0  64737-3 0  9998
2 36204  99.3029  19.2676 0019562  88.8756 271.4669 14.36132365983655

Track FENGYUN 1C DEB in real time with AllMySat

Download on the App Store